�N����,����,����,����,����,�C��,���x,�~����,�S�V����,�ő�u�ԕ���,,,,,
,,,,,,,,,����,����,����,�N��,,
yyyy/mm/dd,hh:mm:ss,(16),16����,m/s,��,%,mm,KW/�u,(16),16����,m/s,Time,,
2020/10/1,1:00:00,11,���쐼,1.7,7.4,100,0,0,10,�쐼,2.9,26,,
2020/10/1,2:00:00,12,��,1.8,9.3,100,0,0,12,��,3.8,49,,
2020/10/1,3:00:00,11,���쐼,2.5,8.6,100,0,0,12,��,3.4,3,,
2020/10/1,4:00:00,12,��,1.7,8.8,100,0,0,12,��,2.9,1,,
2020/10/1,5:00:00,11,���쐼,2.6,9.7,100,0,0,12,��,4.5,42,,
2020/10/1,6:00:00,12,��,2,10.7,98.7,0,0.02,13,���k��,4.1,1,,
2020/10/1,7:00:00,14,�k��,2.5,11.7,96.3,0,0.16,14,�k��,4.9,59,,
2020/10/1,8:00:00,14,�k��,2.7,13.6,92,0,0.26,14,�k��,5.6,21,,
2020/10/1,9:00:00,13,���k��,2.7,15.3,79.2,0,0.44,13,���k��,4.6,46,,
2020/10/1,10:00:00,16,�k,1.8,16.6,81,0,0.44,15,�k�k��,4.5,35,,
2020/10/1,11:00:00,2,�k��,1.8,17.5,77.1,0,0.41,16,�k,3.2,18,,
2020/10/1,12:00:00,3,���k��,2.1,17.6,74.2,0,0.4,3,���k��,3.3,53,,
2020/10/1,13:00:00,4,��,1.3,17.2,83.7,0,0.29,4,��,3,12,,
2020/10/1,14:00:00,5,���쓌,1.9,16.7,77.7,0,0.26,6,�쓌,3.1,47,,
2020/10/1,15:00:00,6,�쓌,1.2,15.7,83.6,0,0.16,5,���쓌,3.4,8,,
2020/10/1,16:00:00,16,�É�,0,14.7,90.2,0,0.07,7,��쓌,1.3,2,,
2020/10/1,17:00:00,12,��,0.8,13.2,95.6,0,0.02,12,��,1.6,59,,
2020/10/1,18:00:00,16,�É�,0,13,97.4,0,0,11,���쐼,1.4,19,,
2020/10/1,19:00:00,11,���쐼,1.7,12.8,98.2,0,0,12,��,2.5,59,,
2020/10/1,20:00:00,11,���쐼,2,12.6,97.7,0,0,11,���쐼,3.2,58,,
2020/10/1,21:00:00,10,�쐼,0.8,12.7,96.8,0,0,12,��,3.5,14,,
2020/10/1,22:00:00,14,�k��,0.9,12.9,95.5,0,0,1,�k�k��,2.5,33,,
2020/10/1,23:00:00,11,���쐼,1.2,12.3,97.9,0,0,11,���쐼,2.2,4,,
2020/10/1,0:00:00,16,�É�,0.1,12.3,99.2,0,0,10,�쐼,1.6,2,,
2020/10/2,1:00:00,12,��,1.3,12.5,99.8,1.5,0,12,��,2.8,13,,
2020/10/2,2:00:00,12,��,1.1,12.6,99.9,0,0,13,���k��,2.1,7,,
2020/10/2,3:00:00,13,���k��,0.5,12.7,99.9,0,0,12,��,6.6,46,,
2020/10/2,4:00:00,14,�k��,1.1,12.6,99.9,0,0,12,��,2.2,43,,
2020/10/2,5:00:00,13,���k��,2.2,12.2,98.9,0,0,13,���k��,3.6,47,,
2020/10/2,6:00:00,14,�k��,1.5,11.8,97.3,0,0.01,14,�k��,2.8,10,,
2020/10/2,7:00:00,13,���k��,2.5,12.4,96.2,0,0.06,13,���k��,5.5,29,,
2020/10/2,8:00:00,1,�k�k��,1.7,14.5,90.5,0,0.18,13,���k��,3.5,2,,
2020/10/2,9:00:00,3,���k��,1.6,16.2,85.5,0,0.39,3,���k��,3.8,18,,
2020/10/2,10:00:00,13,���k��,1.8,17.5,73.8,0,0.69,1,�k�k��,4.4,26,,
2020/10/2,11:00:00,5,���쓌,2.6,19.3,75.3,0,0.76,4,��,5.5,29,,
2020/10/2,12:00:00,5,���쓌,3.2,18.8,72.6,0,0.75,5,���쓌,4.8,15,,
2020/10/2,13:00:00,6,�쓌,3.2,16.8,77.9,0,0.64,6,�쓌,6.1,28,,
2020/10/2,14:00:00,8,��,2.5,16.3,80.9,0,0.41,6,�쓌,4.9,14,,
2020/10/2,15:00:00,8,��,2.3,16.4,83.6,0,0.24,7,��쓌,4.2,59,,
2020/10/2,16:00:00,7,��쓌,2.5,15.1,86.8,0,0.2,8,��,4.8,42,,
2020/10/2,17:00:00,7,��쓌,1.1,14.2,91.8,0,0.05,7,��쓌,3.7,1,,
2020/10/2,18:00:00,7,��쓌,1.6,14.3,90,0,0,7,��쓌,3.2,51,,
2020/10/2,19:00:00,6,�쓌,2.3,14.4,91.5,0,0,6,�쓌,4.3,54,,
2020/10/2,20:00:00,7,��쓌,2,14.8,93.4,0,0,6,�쓌,4.6,30,,
2020/10/2,21:00:00,7,��쓌,2.3,15,92.4,0,0,7,��쓌,4.5,52,,
2020/10/2,22:00:00,7,��쓌,2.3,15,92,0,0,6,�쓌,5.4,45,,
2020/10/2,23:00:00,6,�쓌,2.2,14.8,92.4,0,0,7,��쓌,5.6,22,,
2020/10/2,0:00:00,7,��쓌,2,14.6,93.5,0,0,8,��,4.2,31,,
2020/10/3,1:00:00,9,��쐼,1.5,14.6,93.9,0,0,6,�쓌,4.6,32,,
2020/10/3,2:00:00,8,��,2.2,14.8,94.5,0,0,7,��쓌,4.2,58,,
2020/10/3,3:00:00,6,�쓌,2.8,15.2,94.2,0,0,7,��쓌,7.3,20,,
2020/10/3,4:00:00,6,�쓌,3.3,15.5,94.5,0,0,6,�쓌,6.6,53,,
2020/10/3,5:00:00,7,��쓌,3.9,15.3,96.7,0,0,7,��쓌,7.2,57,,
2020/10/3,6:00:00,7,��쓌,3.5,15.5,96.1,0,0.01,7,��쓌,6.9,7,,
2020/10/3,7:00:00,7,��쓌,3.4,16.2,92.4,0,0.12,7,��쓌,7.3,24,,
2020/10/3,8:00:00,7,��쓌,3.3,16.8,90.8,0,0.15,7,��쓌,8.1,41,,
2020/10/3,9:00:00,7,��쓌,4.2,17,89.6,0,0.24,7,��쓌,7.4,45,,
2020/10/3,10:00:00,7,��쓌,4.3,17.1,89.3,0,0.25,7,��쓌,8.8,20,,
2020/10/3,11:00:00,7,��쓌,3.8,17.3,87.8,0,0.18,8,��,8.8,36,,
2020/10/3,12:00:00,8,��,4.9,17.6,85.8,0,0.25,7,��쓌,10.1,59,,
2020/10/3,13:00:00,8,��,5.3,17.7,86.3,0,0.16,9,��쐼,10.9,41,,
2020/10/3,14:00:00,2,�k��,5,17.6,88.2,0,0.12,2,�k��,10,37,,
2020/10/3,15:00:00,3,���k��,5,17.7,88.1,0,0.14,2,�k��,9.5,49,,
2020/10/3,16:00:00,2,�k��,4,17,93.1,0,0.07,2,�k��,9.9,48,,
2020/10/3,17:00:00,3,���k��,3.1,17,96.3,0,0.04,3,���k��,8.5,35,,
2020/10/3,18:00:00,4,��,2.9,16.6,97.3,0,0,3,���k��,7.4,3,,
2020/10/3,19:00:00,9,��쐼,2.3,16.5,97.5,0,0,8,��,6.1,23,,
2020/10/3,20:00:00,13,���k��,0.6,15.2,99.5,0,0,9,��쐼,4.8,3,,
2020/10/3,21:00:00,12,��,1.9,13.1,99.9,0,0,12,��,2.8,57,,
2020/10/3,22:00:00,14,�k��,1,13.6,100,0,0,15,�k�k��,2.6,49,,
2020/10/3,23:00:00,13,���k��,1.8,12.5,100,0,0,13,���k��,3.5,23,,
2020/10/3,0:00:00,13,���k��,2,12.6,100,0,0,14,�k��,3.8,51,,
2020/10/4,1:00:00,13,���k��,1.9,11.8,100,0,0,13,���k��,3.7,10,,
2020/10/4,2:00:00,13,���k��,1.9,11,99.8,0,0,13,���k��,3.9,23,,
2020/10/4,3:00:00,13,���k��,2,11.6,100,0,0,13,���k��,4,22,,
2020/10/4,4:00:00,13,���k��,0.5,11.1,100,0,0,13,���k��,3.2,10,,
2020/10/4,5:00:00,13,���k��,0.8,9.5,100,0,0,13,���k��,2,18,,
2020/10/4,6:00:00,14,�k��,1.8,10.7,100,0,0.01,13,���k��,3.3,36,,
2020/10/4,7:00:00,13,���k��,2.2,12.4,100,0,0.11,13,���k��,3.7,32,,
2020/10/4,8:00:00,1,�k�k��,0.7,15.2,95.4,0,0.23,14,�k��,2.8,22,,
2020/10/4,9:00:00,5,���쓌,0.8,16.2,91.4,0,0.26,3,���k��,1.8,2,,
2020/10/4,10:00:00,4,��,1.3,16.4,93.2,0,0.26,4,��,3.3,25,,
2020/10/4,11:00:00,4,��,1,16.8,90.4,0,0.22,4,��,2.1,28,,
2020/10/4,12:00:00,3,���k��,0.9,16.7,91.8,0,0.15,4,��,2.1,20,,
2020/10/4,13:00:00,2,�k��,1.4,16.5,92.4,0,0.13,2,�k��,2.5,34,,
2020/10/4,14:00:00,6,�쓌,1.6,16.7,93.7,0,0.12,6,�쓌,2.6,57,,
2020/10/4,15:00:00,11,���쐼,2.3,16.2,96.3,0.5,0.08,11,���쐼,4.2,53,,
2020/10/4,16:00:00,11,���쐼,1.3,15.8,98,0.5,0.03,12,��,2.5,7,,
2020/10/4,17:00:00,14,�k��,2.2,15.7,98.7,0.5,0.01,14,�k��,4,53,,
2020/10/4,18:00:00,15,�k�k��,1.3,15.1,95.8,0.5,0,15,�k�k��,2.6,45,,
2020/10/4,19:00:00,14,�k��,1.7,13.1,97,3.5,0,15,�k�k��,5.7,21,,
2020/10/4,20:00:00,14,�k��,1.5,12.3,98.2,5,0,13,���k��,5.6,24,,
2020/10/4,21:00:00,13,���k��,2.6,12.1,99.1,2,0,13,���k��,5.6,23,,
2020/10/4,22:00:00,12,��,2.1,11.9,99.2,1,0,13,���k��,4.1,9,,
2020/10/4,23:00:00,13,���k��,2.8,11.8,99.1,1.5,0,12,��,5.6,40,,
2020/10/4,0:00:00,14,�k��,2.5,11.6,99.1,1.5,0,12,��,5.8,5,,
2020/10/5,1:00:00,15,�k�k��,1.9,11.6,99,2,0,14,�k��,4.8,29,,
2020/10/5,2:00:00,12,��,1.9,11.5,99.5,2.5,0,13,���k��,3.6,15,,
2020/10/5,3:00:00,13,���k��,1.5,11.4,99.7,0,0,12,��,3.1,7,,
2020/10/5,4:00:00,3,���k��,1,11.4,99.6,1.5,0,13,���k��,2.7,10,,
2020/10/5,5:00:00,10,�쐼,0.9,11.5,99.9,0.5,0,13,���k��,2.5,22,,
2020/10/5,6:00:00,13,���k��,0.6,11.6,100,0.5,0,15,�k�k��,2.8,41,,
2020/10/5,7:00:00,14,�k��,0.9,11.8,100,1,0.01,14,�k��,3,32,,
2020/10/5,8:00:00,12,��,0.8,12,99.8,0.5,0.04,13,���k��,2.5,27,,
2020/10/5,9:00:00,14,�k��,2.5,12.3,99.8,2,0.03,13,���k��,4.7,47,,
2020/10/5,10:00:00,15,�k�k��,0.6,13.5,98.1,0.5,0.13,14,�k��,4,3,,
2020/10/5,11:00:00,7,��쓌,1.6,15.1,94.4,0,0.32,8,��,3,50,,
2020/10/5,12:00:00,10,�쐼,2.4,18.6,83.4,0,0.53,9,��쐼,6.1,55,,
2020/10/5,13:00:00,12,��,8,20.9,40.4,0,0.71,12,��,13.7,50,,
2020/10/5,14:00:00,12,��,5.6,20,40.4,0,0.62,11,���쐼,14,4,,
2020/10/5,15:00:00,12,��,5,18.9,46.3,0,0.47,12,��,11.7,34,,
2020/10/5,16:00:00,11,���쐼,5.1,16.9,49.6,0,0.28,12,��,9.6,48,,
2020/10/5,17:00:00,10,�쐼,3.9,14.7,58.2,0,0.06,10,�쐼,7,0,,
2020/10/5,18:00:00,3,���k��,1.2,8.7,89,0,0,10,�쐼,5,0,,
2020/10/5,19:00:00,11,���쐼,1,9.8,81.8,0,0,7,��쓌,5.6,34,,
2020/10/5,20:00:00,1,�k�k��,0.4,8.3,86.4,0,0,1,�k�k��,2.5,40,,
2020/10/5,21:00:00,4,��,1.2,8,88.1,0,0,11,���쐼,3.2,32,,
2020/10/5,22:00:00,9,��쐼,3.7,11.2,89.8,1,0,10,�쐼,7.4,53,,
2020/10/5,23:00:00,9,��쐼,2.3,10.4,98.4,0.5,0,8,��,5.2,0,,
2020/10/5,0:00:00,9,��쐼,2.9,11.2,92.1,1,0,9,��쐼,6.4,22,,
2020/10/6,1:00:00,9,��쐼,3.2,11.3,93.1,0.5,0,9,��쐼,6.4,34,,
2020/10/6,2:00:00,8,��,1.4,9.7,93.9,0.5,0,9,��쐼,7.2,18,,
2020/10/6,3:00:00,11,���쐼,3.6,11,85.8,0.5,0,8,��,6.9,16,,
2020/10/6,4:00:00,14,�k��,1.6,9.2,89.8,0,0,12,��,5.3,2,,
2020/10/6,5:00:00,12,��,1.5,7,95,0,0,14,�k��,3,1,,
2020/10/6,6:00:00,5,���쓌,0.8,4.6,98.3,0,0.01,11,���쐼,2.6,4,,
2020/10/6,7:00:00,11,���쐼,0.3,10.3,93.4,0,0.18,11,���쐼,2.8,22,,
2020/10/6,8:00:00,10,�쐼,2,14.4,64.5,0,0.38,10,�쐼,3.6,58,,
2020/10/6,9:00:00,16,�k,1.6,16.3,64.9,0,0.56,1,�k�k��,3.8,41,,
2020/10/6,10:00:00,15,�k�k��,1.2,17.9,54.3,0,0.69,14,�k��,3.8,24,,
2020/10/6,11:00:00,6,�쓌,2.5,17.9,53.7,0,0.77,7,��쓌,4.5,17,,
2020/10/6,12:00:00,8,��,3.4,17.7,52,0,0.78,8,��,6.1,46,,
2020/10/6,13:00:00,9,��쐼,2.9,18.3,46.8,0,0.73,6,�쓌,6.6,43,,
2020/10/6,14:00:00,7,��쓌,2.8,18.1,64.4,0,0.61,5,���쓌,6.4,34,,
2020/10/6,15:00:00,8,��,2.4,17.5,57,0,0.47,8,��,5.1,30,,
2020/10/6,16:00:00,8,��,1.9,15.7,70.3,0,0.22,8,��,4.3,22,,
2020/10/6,17:00:00,16,�É�,0.1,12.9,86.6,0,0.06,7,��쓌,3.2,1,,
2020/10/6,18:00:00,13,���k��,1.7,10.2,97.4,0,0,13,���k��,2.8,58,,
2020/10/6,19:00:00,12,��,2.7,10.4,96.8,0,0,12,��,3.8,59,,
2020/10/6,20:00:00,12,��,1.9,10.7,95,0,0,12,��,3.9,4,,
2020/10/6,21:00:00,1,�k�k��,1.1,11.5,89.3,0,0,14,�k��,4.2,16,,
2020/10/6,22:00:00,11,���쐼,1,9.6,96,0,0,11,���쐼,3.2,16,,
2020/10/6,23:00:00,16,�k,0.7,8.2,97.5,0,0,16,�k,2.3,59,,
2020/10/6,0:00:00,14,�k��,1.9,11.3,89.1,0,0,14,�k��,3.3,47,,
2020/10/7,1:00:00,14,�k��,2.3,10.7,94.4,0,0,12,��,4.1,50,,
2020/10/7,2:00:00,12,��,2.2,8.3,97.3,0,0,13,���k��,3,23,,
2020/10/7,3:00:00,14,�k��,1.8,8.6,97.8,0,0,13,���k��,3.1,34,,
2020/10/7,4:00:00,13,���k��,2.5,8.1,99.3,0,0,13,���k��,3.3,55,,
2020/10/7,5:00:00,13,���k��,2.3,6.8,99.7,0,0,13,���k��,3.1,56,,
2020/10/7,6:00:00,13,���k��,2.7,7.4,100,0,0.02,13,���k��,3.4,54,,
2020/10/7,7:00:00,13,���k��,1,10.2,94.3,0,0.18,12,��,3.1,38,,
2020/10/7,8:00:00,14,�k��,1.4,13.6,85.3,0,0.38,14,�k��,2.5,57,,
2020/10/7,9:00:00,7,��쓌,2.4,15.5,77.7,0,0.55,6,�쓌,4,55,,
2020/10/7,10:00:00,6,�쓌,2.9,16,78.9,0,0.66,5,���쓌,4.4,26,,
2020/10/7,11:00:00,7,��쓌,2.7,17.2,61.9,0,0.6,7,��쓌,4.9,55,,
2020/10/7,12:00:00,5,���쓌,2.8,16.5,65.7,0,0.72,6,�쓌,5.2,37,,
2020/10/7,13:00:00,6,�쓌,1.9,17.3,71.2,0,0.51,6,�쓌,3.9,31,,
2020/10/7,14:00:00,6,�쓌,2.2,17.5,68.2,0,0.52,6,�쓌,3.5,53,,
2020/10/7,15:00:00,7,��쓌,2.2,17.8,60.4,0,0.46,7,��쓌,4,19,,
2020/10/7,16:00:00,5,���쓌,0.7,16.2,72.1,0,0.25,6,�쓌,3.4,3,,
2020/10/7,17:00:00,10,�쐼,0.8,10.6,89.8,0,0.03,1,�k�k��,1.8,31,,
2020/10/7,18:00:00,11,���쐼,1.4,10.5,95.4,0,0,11,���쐼,2.8,59,,
2020/10/7,19:00:00,11,���쐼,2.2,11.3,91.3,0,0,10,�쐼,3.7,12,,
2020/10/7,20:00:00,11,���쐼,2,11,92.9,0,0,11,���쐼,3.3,40,,
2020/10/7,21:00:00,12,��,1.7,9.7,96.5,0,0,12,��,3.1,41,,
2020/10/7,22:00:00,12,��,2.1,9.6,97.9,0,0,12,��,2.8,55,,
2020/10/7,23:00:00,13,���k��,2.5,9.9,90.9,0,0,13,���k��,4.1,59,,
2020/10/7,0:00:00,13,���k��,3.2,9.2,92.7,0,0,13,���k��,5.9,29,,
2020/10/8,1:00:00,13,���k��,3.2,9.8,86.7,0,0,14,�k��,5.1,52,,
2020/10/8,2:00:00,13,���k��,2.1,8,93.2,0,0,14,�k��,5.1,4,,
2020/10/8,3:00:00,10,�쐼,1,6.7,94.7,0,0,12,��,3.1,38,,
2020/10/8,4:00:00,11,���쐼,0.7,5.7,97.3,0,0,14,�k��,3,3,,
2020/10/8,5:00:00,11,���쐼,1.7,6.5,98.7,0,0,12,��,2.6,46,,
2020/10/8,6:00:00,12,��,1.4,7.7,94.7,0,0.01,12,��,4.3,8,,
2020/10/8,7:00:00,13,���k��,1.3,8.7,94.4,0,0.06,13,���k��,2.5,10,,
2020/10/8,8:00:00,11,���쐼,1.9,11.9,83.7,0,0.24,14,�k��,3.9,46,,
2020/10/8,9:00:00,14,�k��,2.4,13.6,85.3,0,0.28,14,�k��,3.9,37,,
2020/10/8,10:00:00,16,�k,2.3,15.1,67.3,0,0.4,16,�k,4.6,58,,
2020/10/8,11:00:00,15,�k�k��,1.2,15.9,61.6,0,0.47,14,�k��,3.6,34,,
2020/10/8,12:00:00,5,���쓌,2.2,16.2,73.5,0,0.44,5,���쓌,4.3,46,,
2020/10/8,13:00:00,6,�쓌,2.5,14.9,70.6,0,0.53,4,��,4,5,,
2020/10/8,14:00:00,5,���쓌,0.9,15.8,71.3,0,0.39,6,�쓌,3.4,3,,
2020/10/8,15:00:00,8,��,2.2,14.4,74.9,0,0.26,7,��쓌,3.9,50,,
2020/10/8,16:00:00,8,��,1.2,13.4,82.1,0,0.16,7,��쓌,3.4,14,,
2020/10/8,17:00:00,10,�쐼,1.5,11.6,88.7,0,0.04,8,��,3,23,,
2020/10/8,18:00:00,13,���k��,0.8,9.6,97.6,0,0,11,���쐼,1.9,2,,
2020/10/8,19:00:00,12,��,2,9.9,97.7,0,0,12,��,3,51,,
2020/10/8,20:00:00,14,�k��,2.2,10.2,94,0,0,13,���k��,3.6,44,,
2020/10/8,21:00:00,13,���k��,2.5,9.3,91.6,0,0,13,���k��,4,46,,
2020/10/8,22:00:00,13,���k��,3,9.2,88,0,0,13,���k��,4.7,7,,
2020/10/8,23:00:00,13,���k��,2.8,8.7,83.5,0,0,14,�k��,4.9,35,,
2020/10/8,0:00:00,14,�k��,1.7,7.1,88,0,0,13,���k��,4.3,33,,
2020/10/9,1:00:00,13,���k��,2.9,7.6,87.5,0,0,14,�k��,4.9,55,,
2020/10/9,2:00:00,13,���k��,3.9,7.5,86.4,0,0,13,���k��,6,55,,
2020/10/9,3:00:00,14,�k��,4,6.8,87.7,0,0,14,�k��,7.4,41,,
2020/10/9,4:00:00,13,���k��,3.2,6.7,85,0,0,14,�k��,5,45,,
2020/10/9,5:00:00,13,���k��,3.4,6.1,86.5,0,0,14,�k��,6.3,25,,
2020/10/9,6:00:00,14,�k��,3.6,6.6,83.5,0,0.01,14,�k��,5.5,31,,
2020/10/9,7:00:00,14,�k��,3.5,8.7,74.5,0,0.1,14,�k��,6.7,20,,
2020/10/9,8:00:00,14,�k��,3.8,11.5,66.7,0,0.36,14,�k��,7,46,,
2020/10/9,9:00:00,15,�k�k��,2.1,15,51,0,0.55,14,�k��,5.9,43,,
2020/10/9,10:00:00,5,���쓌,2,14.4,61.8,0,0.53,7,��쓌,4.4,41,,
2020/10/9,11:00:00,6,�쓌,2.3,16.1,52.1,0,0.63,5,���쓌,4.2,42,,
2020/10/9,12:00:00,6,�쓌,2.9,16.4,55.3,0,0.7,6,�쓌,5.5,18,,
2020/10/9,13:00:00,6,�쓌,2.6,16.5,59.3,0,0.65,6,�쓌,5.1,14,,
2020/10/9,14:00:00,7,��쓌,2.6,15,62.5,0,0.45,7,��쓌,5.5,10,,
2020/10/9,15:00:00,7,��쓌,1.5,14.6,60.4,0,0.3,7,��쓌,3.8,1,,
2020/10/9,16:00:00,9,��쐼,0.5,12.6,74.7,0,0.15,7,��쓌,2.8,3,,
2020/10/9,17:00:00,16,�É�,0,8.8,90.8,0,0.04,10,�쐼,2.3,32,,
2020/10/9,18:00:00,13,���k��,0.7,7.1,96.9,0,0,12,��,1.3,26,,
2020/10/9,19:00:00,13,���k��,1.6,5.2,98.4,0,0,12,��,2.2,47,,
2020/10/9,20:00:00,12,��,1.9,4.5,99.2,0,0,13,���k��,2.9,15,,
2020/10/9,21:00:00,12,��,2.6,5.3,99.1,0,0,12,��,3.3,37,,
2020/10/9,22:00:00,12,��,2.2,4.1,99.5,0,0,12,��,2.7,54,,
2020/10/9,23:00:00,13,���k��,1.8,3.8,100,0,0,12,��,2.6,42,,
2020/10/9,0:00:00,13,���k��,1.7,4.5,99.4,0,0,13,���k��,3,44,,
2020/10/10,1:00:00,12,��,1.7,5.3,95.4,0,0,13,���k��,3,9,,
2020/10/10,2:00:00,13,���k��,1.2,4.6,96.2,0,0,14,�k��,4.3,24,,
2020/10/10,3:00:00,13,���k��,1.4,4.8,96.1,0,0,13,���k��,3,35,,
2020/10/10,4:00:00,14,�k��,1.9,5.9,93.3,0,0,14,�k��,3.5,58,,
2020/10/10,5:00:00,14,�k��,1.2,6.6,90.7,0,0,14,�k��,3.6,29,,
2020/10/10,6:00:00,13,���k��,2.2,5.1,95.4,0,0.01,13,���k��,3.7,31,,
2020/10/10,7:00:00,14,�k��,2.1,7.2,87.5,0,0.09,14,�k��,4.7,29,,
2020/10/10,8:00:00,14,�k��,1.8,9,89.4,0,0.19,15,�k�k��,2.4,59,,
2020/10/10,9:00:00,14,�k��,1.2,11.9,84,0,0.32,14,�k��,3.5,17,,
2020/10/10,10:00:00,2,�k��,1.3,13.2,82.6,0,0.28,1,�k�k��,2.7,20,,
2020/10/10,11:00:00,16,�É�,0,13.4,84.1,0,0.2,6,�쓌,3.3,33,,
2020/10/10,12:00:00,12,��,1.3,14,85,0,0.19,13,���k��,2.5,59,,
2020/10/10,13:00:00,14,�k��,1.9,14.5,84.7,0,0.16,13,���k��,3,56,,
2020/10/10,14:00:00,16,�É�,0.2,15.4,79.5,0,0.33,14,�k��,3.1,13,,
2020/10/10,15:00:00,1,�k�k��,1.7,14.6,82.3,0,0.22,2,�k��,4,7,,
2020/10/10,16:00:00,1,�k�k��,2.4,14.5,80.3,0,0.16,2,�k��,4.7,46,,
2020/10/10,17:00:00,4,��,2.6,13.6,80.3,0,0.02,1,�k�k��,4.5,32,,
2020/10/10,18:00:00,4,��,2.5,13.2,81.2,0,0,4,��,4.2,51,,
2020/10/10,19:00:00,4,��,2.2,12.7,83.2,0,0,4,��,3.8,43,,
2020/10/10,20:00:00,4,��,2.3,12.3,83.9,0,0,4,��,3.9,20,,
2020/10/10,21:00:00,10.8,�쐼,92.6,0,0,,,,,,,,
2020/10/10,22:00:00,4,��,1.9,12.2,87.5,0,0,4,��,2.9,14,,
2020/10/10,23:00:00,16,�É�,0.2,9.8,96.9,0,0,4,��,2.9,10,,
2020/10/10,0:00:00,11,���쐼,0.6,10.4,98.4,0,0,10,�쐼,2.1,16,,
2020/10/11,1:00:00,12,��,0.7,10.4,97.2,0,0,12,��,1.6,35,,
2020/10/11,2:00:00,12,��,1,10.5,98,0,0,12,��,1.8,59,,
2020/10/11,3:00:00,1,�k�k��,0.6,11.8,96.2,0,0,13,���k��,2.1,16,,
2020/10/11,4:00:00,1,�k�k��,2.2,11.5,95.6,0,0,1,�k�k��,3.4,57,,
2020/10/11,5:00:00,16,�k,1.9,11.5,95.1,0,0,2,�k��,4.4,24,,
2020/10/11,6:00:00,1,�k�k��,2.1,11.5,94.3,0,0,16,�k,3.8,4,,
2020/10/11,7:00:00,16,�k,1,12,94.1,0,0.03,1,�k�k��,4.2,3,,
2020/10/11,8:00:00,1,�k�k��,1.9,12.3,91.2,0,0.08,1,�k�k��,4.6,34,,
2020/10/11,9:00:00,1,�k�k��,2.1,13,89.2,0,0.12,16,�k,4.6,49,,
2020/10/11,10:00:00,15,�k�k��,1.2,12.6,91.1,0,0.07,1,�k�k��,4.7,0,,
2020/10/11,11:00:00,14,�k��,1,12.7,92.7,0,0.07,14,�k��,2.4,22,,
2020/10/11,12:00:00,2,�k��,3,13.9,86.5,0,0.12,3,���k��,5.8,58,,
2020/10/11,13:00:00,3,���k��,4.2,14.5,83.1,0,0.25,3,���k��,6.4,3,,
2020/10/11,14:00:00,1,�k�k��,3.6,14.5,85.9,0,0.24,3,���k��,6.6,41,,
2020/10/11,15:00:00,1,�k�k��,2.9,14,86.1,0,0.14,1,�k�k��,5.3,11,,
2020/10/11,16:00:00,1,�k�k��,2,13.6,86.9,0,0.08,1,�k�k��,4.4,3,,
2020/10/11,17:00:00,16,�k,1.5,12.7,91.3,0,0.02,16,�k,2.9,6,,
2020/10/11,18:00:00,6,�쓌,0.5,11.2,93.6,0,0,16,�k,2.5,15,,
2020/10/11,19:00:00,1,�k�k��,1.4,11.7,94.5,0,0,1,�k�k��,2.2,55,,
2020/10/11,20:00:00,1,�k�k��,1.6,10.8,94.9,0,0,1,�k�k��,2.5,28,,
2020/10/11,21:00:00,11,���쐼,1,10.8,98.4,0,0,1,�k�k��,2.3,5,,
2020/10/11,22:00:00,12,��,1.4,11.2,97.9,0,0,12,��,2.3,59,,
2020/10/11,23:00:00,15,�k�k��,0.7,11.2,97.9,0,0,12,��,2.5,1,,
2020/10/11,0:00:00,14,�k��,1.1,11.4,95.7,0,0,14,�k��,2.5,19,,
2020/10/12,1:00:00,14,�k��,1.4,11.5,94.8,0,0,14,�k��,3.6,29,,
2020/10/12,2:00:00,13,���k��,1.9,11.5,96.3,0,0,14,�k��,4.5,30,,
2020/10/12,3:00:00,13,���k��,2.4,11.4,96.7,0,0,13,���k��,3.9,47,,
2020/10/12,4:00:00,14,�k��,1.4,11.2,97.7,0,0,13,���k��,3.5,0,,
2020/10/12,5:00:00,14,�k��,1,10.9,98.1,0,0,14,�k��,4.1,2,,
2020/10/12,6:00:00,13,���k��,3.1,10.9,98.1,0,0,13,���k��,5.1,59,,
2020/10/12,7:00:00,13,���k��,2.1,10.9,98.9,0,0.02,14,�k��,5.3,4,,
2020/10/12,8:00:00,13,���k��,2.6,11.2,99.3,0,0.04,13,���k��,4.7,52,,
2020/10/12,9:00:00,13,���k��,2.5,11.6,99.5,0,0.07,12,��,5.7,30,,
2020/10/12,10:00:00,13,���k��,2.6,12,99.3,1,0.09,13,���k��,5,45,,
2020/10/12,11:00:00,14,�k��,1.8,12.5,99.2,0.5,0.09,14,�k��,4.9,2,,
2020/10/12,12:00:00,13,���k��,1.5,13.2,99.6,0,0.08,14,�k��,5,2,,
2020/10/12,13:00:00,13,���k��,2,13.4,99.8,1,0.06,13,���k��,2.6,53,,
2020/10/12,14:00:00,13,���k��,1.5,13.7,99.9,1,0.07,13,���k��,2.7,54,,
2020/10/12,15:00:00,13,���k��,0.6,13.8,99.7,1,0.06,14,�k��,3.2,3,,
2020/10/12,16:00:00,3,���k��,2.4,14.5,100,1.5,0.03,3,���k��,4,57,,
2020/10/12,17:00:00,2,�k��,1.9,14.5,100,2,0.01,3,���k��,5.1,16,,
2020/10/12,18:00:00,2,�k��,2.6,14.8,100,1,0,2,�k��,3.7,28,,
2020/10/12,19:00:00,1,�k�k��,2,14.8,100,8,0,2,�k��,3.6,2,,
2020/10/12,20:00:00,13,���k��,1.6,13.9,100,3,0,13,���k��,3.5,25,,
2020/10/12,21:00:00,14,�k��,0.5,13.8,100,4,0,13,���k��,3.8,24,,
2020/10/12,22:00:00,10,�쐼,0.8,14.1,100,4,0,9,��쐼,1.5,57,,
2020/10/12,23:00:00,7,��쓌,3.3,16.1,100,2.5,0,6,�쓌,7.3,56,,
2020/10/12,0:00:00,8,��,3.4,16.1,100,1,0,8,��,8.2,10,,
2020/10/13,1:00:00,8,��,3.3,15.9,100,3,0,8,��,7.1,19,,
2020/10/13,2:00:00,8,��,3.4,15.7,100,1.5,0,9,��쐼,7.2,27,,
2020/10/13,3:00:00,9,��쐼,2.2,15.5,100,0,0,8,��,7.9,19,,
2020/10/13,4:00:00,12,��,1.3,15.1,99.6,0,0,10,�쐼,5.9,2,,
2020/10/13,5:00:00,13,���k��,3,14.2,100,0,0,14,�k��,5.9,57,,
2020/10/13,6:00:00,14,�k��,1.4,13.7,99.6,0,0,14,�k��,4.3,14,,
2020/10/13,7:00:00,14,�k��,1.5,14.5,99.8,0,0.07,13,���k��,3.2,30,,
2020/10/13,8:00:00,14,�k��,1.7,17.6,92,0,0.31,14,�k��,2.9,0,,
2020/10/13,9:00:00,14,�k��,2.8,19.3,74.3,0,0.48,14,�k��,7.9,32,,
2020/10/13,10:00:00,14,�k��,2.7,20.7,67.2,0,0.55,14,�k��,7.3,5,,
2020/10/13,11:00:00,15,�k�k��,3,21.4,55.3,0,0.63,15,�k�k��,6.2,46,,
2020/10/13,12:00:00,16,�k,2.1,22.5,55.5,0,0.65,1,�k�k��,6.7,45,,
2020/10/13,13:00:00,8,��,3.5,20.1,79.7,0,0.7,15,�k�k��,5.5,20,,
2020/10/13,14:00:00,8,��,2.5,18.8,75.4,0,0.49,7,��쓌,4.9,4,,
2020/10/13,15:00:00,16,�k,1.2,19.8,63.8,0,0.28,9,��쐼,4.1,22,,
2020/10/13,16:00:00,2,�k��,1.1,17.6,77.2,0,0.07,16,�k,3.1,22,,
2020/10/13,17:00:00,6,�쓌,1.6,15.7,87.3,0,0.02,1,�k�k��,3.7,11,,
2020/10/13,18:00:00,16,�k,1.9,15.4,73.9,0,0,16,�k,4,49,,
2020/10/13,19:00:00,15,�k�k��,1,14,80.8,0,0,13,���k��,3.5,25,,
2020/10/13,20:00:00,13,���k��,2,12.1,94.1,0,0,13,���k��,2.9,49,,
2020/10/13,21:00:00,15,�k�k��,0.4,12.3,91.4,0,0,1,�k�k��,3.2,24,,
2020/10/13,22:00:00,12,��,1.6,9.9,98.1,0,0,13,���k��,2.6,57,,
2020/10/13,23:00:00,13,���k��,2.5,11.6,92.9,0,0,14,�k��,3.4,59,,
2020/10/13,0:00:00,12,��,1.3,10.7,94.8,0,0,13,���k��,3.5,1,,
2020/10/14,1:00:00,14,�k��,1.7,10.5,90.3,0,0,13,���k��,2.8,54,,
2020/10/14,2:00:00,13,���k��,0.5,10.3,90.1,0,0,13,���k��,4,8,,
2020/10/14,3:00:00,12,��,2.1,8.1,93.7,0,0,13,���k��,2.8,32,,
2020/10/14,4:00:00,12,��,1.7,6.6,96.7,0,0,13,���k��,3.8,25,,
2020/10/14,5:00:00,13,���k��,1.6,4.8,98.2,0,0,12,��,2.7,16,,
2020/10/14,6:00:00,13,���k��,2.5,5.7,98.9,0,0.01,13,���k��,3.3,57,,
2020/10/14,7:00:00,13,���k��,1.5,8.1,94.2,0,0.15,12,��,3.4,23,,
2020/10/14,8:00:00,12,��,1.3,11.5,84.6,0,0.34,12,��,3.1,17,,
2020/10/14,9:00:00,13,���k��,1.2,14.4,69.8,0,0.52,13,���k��,2.6,9,,
2020/10/14,10:00:00,15,�k�k��,0.7,15.2,67,0,0.5,13,���k��,2.5,9,,
2020/10/14,11:00:00,5,���쓌,3.1,14.4,70.3,0,0.48,5,���쓌,5.1,58,,
2020/10/14,12:00:00,6,�쓌,2.8,14.2,73.6,0,0.39,4,��,5,1,,
2020/10/14,13:00:00,15,�k�k��,3.1,15.7,42.8,0,0.44,12,��,7.1,58,,
2020/10/14,14:00:00,11,���쐼,7,16.5,40.8,0,0.39,11,���쐼,12.6,45,,
2020/10/14,15:00:00,15,�k�k��,4.8,15,53.4,0,0.27,12,��,12.3,11,,
2020/10/14,16:00:00,8,��,1.7,13.1,64.5,0,0.1,13,���k��,9,5,,
2020/10/14,17:00:00,8,��,2.5,11.6,73.9,0,0.02,10,�쐼,7.7,4,,
2020/10/14,18:00:00,9,��쐼,1.6,10.2,76.1,0,0,12,��,3.7,30,,
2020/10/14,19:00:00,16,�k,1.8,9.2,80.2,0,0,15,�k�k��,4.6,34,,
2020/10/14,20:00:00,16,�k,0.4,5.7,91,0,0,1,�k�k��,3.4,3,,
2020/10/14,21:00:00,13,���k��,2.1,5.1,97.2,0,0,14,�k��,2.8,59,,
2020/10/14,22:00:00,14,�k��,2.8,8.2,75.7,0,0,13,���k��,5.7,59,,
2020/10/14,23:00:00,13,���k��,1.3,6.1,79.2,0,0,13,���k��,4.5,3,,
2020/10/14,0:00:00,12,��,2.3,3.6,93.6,0,0,12,��,2.9,17,,
2020/10/15,1:00:00,13,���k��,2.9,2.1,92,0,0,13,���k��,3.9,51,,
2020/10/15,2:00:00,13,���k��,2.2,2,95,0,0,13,���k��,4,0,,
2020/10/15,3:00:00,12,��,2.5,1.2,98.1,0,0,12,��,4.1,8,,
2020/10/15,4:00:00,12,��,2.5,0.5,99.4,0,0,12,��,3.5,59,,
2020/10/15,5:00:00,12,��,1.9,-0.2,99.2,0,0,12,��,3.5,7,,
2020/10/15,6:00:00,13,���k��,2.5,0.9,96.5,0,0.01,14,�k��,3.6,40,,
2020/10/15,7:00:00,12,��,2.5,2.9,95.3,0,0.09,13,���k��,4.9,41,,
2020/10/15,8:00:00,6,�쓌,1.6,8.3,82.8,0,0.35,3,���k��,3,45,,
2020/10/15,9:00:00,12,��,0.9,12.4,50.6,0,0.53,8,��,2.5,47,,
2020/10/15,10:00:00,5,���쓌,1.7,13.9,51.7,0,0.64,4,��,4,19,,
2020/10/15,11:00:00,4,��,2.7,14.2,54.7,0,0.71,4,��,4.5,14,,
2020/10/15,12:00:00,5,���쓌,3.6,14.5,50.3,0,0.73,4,��,5.7,55,,
2020/10/15,13:00:00,5,���쓌,3.5,14,50.2,0,0.68,5,���쓌,5.4,37,,
2020/10/15,14:00:00,11,���쐼,2.5,14.8,34.5,0,0.57,11,���쐼,5.2,59,,
2020/10/15,15:00:00,12,��,4.1,13.6,40.4,0,0.42,12,��,8.9,29,,
2020/10/15,16:00:00,12,��,5.1,11.8,50.6,0,0.23,12,��,9.4,39,,
2020/10/15,17:00:00,13,���k��,1.4,7.9,64,0,0.02,12,��,6,1,,
2020/10/15,18:00:00,14,�k��,1.5,5.4,79.1,0,0,12,��,5.3,25,,
2020/10/15,19:00:00,14,�k��,1.4,2.7,90.8,0,0,14,�k��,2.5,42,,
2020/10/15,20:00:00,13,���k��,1.9,2.1,97.7,0,0,13,���k��,2.8,53,,
2020/10/15,21:00:00,13,���k��,1.6,1.3,98,0,0,13,���k��,2.9,8,,
2020/10/15,22:00:00,14,�k��,1.1,0.2,99.2,0,0,12,��,2.8,46,,
2020/10/15,23:00:00,11,���쐼,0.7,-1.2,99.1,0,0,11,���쐼,2.2,46,,
2020/10/15,0:00:00,12,��,1.9,-1.3,99.4,0,0,12,��,3.2,45,,
2020/10/16,1:00:00,13,���k��,2.5,-0.6,100,0,0,13,���k��,3.3,2,,
2020/10/16,2:00:00,13,���k��,2.2,-1.3,100,0,0,13,���k��,3.6,20,,
2020/10/16,3:00:00,12,��,1.8,-2.2,99.7,0,0,13,���k��,3.1,34,,
2020/10/16,4:00:00,13,���k��,1.6,-0.8,98.6,0,0,14,�k��,3.5,49,,
2020/10/16,5:00:00,13,���k��,2.5,-1.1,98.1,0,0,13,���k��,3.4,51,,
2020/10/16,6:00:00,12,��,2.2,-0.8,97,0,0.01,12,��,3.3,59,,
2020/10/16,7:00:00,12,��,2.1,2,90.5,0,0.16,12,��,3.3,3,,
2020/10/16,8:00:00,13,���k��,1.1,7.6,70.7,0,0.35,12,��,2.6,0,,
2020/10/16,9:00:00,8,��,1,11.6,60.2,0,0.52,4,��,3.4,11,,
2020/10/16,10:00:00,6,�쓌,2.3,12.6,59.6,0,0.64,5,���쓌,4.8,44,,
2020/10/16,11:00:00,7,��쓌,2.6,13.5,52.2,0,0.7,6,�쓌,5.1,30,,
2020/10/16,12:00:00,7,��쓌,2.8,14.3,44.2,0,0.71,6,�쓌,5.6,31,,
2020/10/16,13:00:00,6,�쓌,3.1,14.9,48.4,0,0.66,6,�쓌,6.1,52,,
2020/10/16,14:00:00,6,�쓌,3.7,14.7,52.9,0,0.54,7,��쓌,7,53,,
2020/10/16,15:00:00,7,��쓌,1.2,14.5,45.8,0,0.36,7,��쓌,7.6,5,,
2020/10/16,16:00:00,9,��쐼,2.5,12.5,59,0,0.13,8,��,6.9,35,,
2020/10/16,17:00:00,10,�쐼,2.1,10.2,69.1,0,0.03,10,�쐼,3.3,54,,
2020/10/16,18:00:00,7,��쓌,1.9,9.2,72,0,0,9,��쐼,3.9,38,,
2020/10/16,19:00:00,12,��,0.7,7.1,82.3,0,0,9,��쐼,3.9,21,,
2020/10/16,20:00:00,12,��,2.3,5.5,89.7,0,0,13,���k��,4.6,47,,
2020/10/16,21:00:00,13,���k��,0.8,5,91.8,0,0,14,�k��,3.1,0,,
2020/10/16,22:00:00,13,���k��,2.4,4.2,95.5,0,0,13,���k��,3.6,24,,